Location: *
(47.2149°S, 170.4783°W)
Time: 10:21:58
(UTC+00:00)

Daily predictions for brighter satellites

Satellite Brightness Start Highest point End
(mag) Time Altitude Azimuth Time Altitude Azimuth Time Altitude Azimuth
Lacrosse 5 4.1 14:47:38 22° SE 14:47:38 22° SE 14:49:26 10° SE
Cosmos 2219 Rocket 4.5 14:55:07 15° S 14:55:07 15° S 14:56:13 10° SSE
Cosmos 2369 Rocket 3.8 15:06:25 23° SSE 15:08:41 30° SE 15:13:40 10° ENE
SL-16 R/B 2.9 15:14:07 51° ESE 15:14:07 51° ESE 15:18:47 10° SE
Gbstr 26 Del rocket 4.3 15:24:19 67° SSW 15:25:01 71° SSE 15:33:05 10° E
Cosmos 1943 Rocket 2.7 15:28:48 50° SSE 15:29:44 56° ESE 15:35:16 10° NE
ATLAS 5 CENTAUR R/B 4.3 15:32:15 16° S 15:33:36 17° S 15:37:17 10° SE
Cosmos 44 Rocket 4.5 15:38:50 37° SSE 15:38:50 37° SSE 15:42:01 10° SSE
Nadezhda 1 Rocket 4.3 15:31:18 10° S 15:37:38 66° E 15:43:58 10° NNE
Okean O Rocket 3.6 15:36:40 10° ENE 15:40:28 28° ESE 15:44:16 10° S
USA 234 3.3 15:36:30 10° SE 15:43:01 61° SSW 15:43:34 59° SW
Cosmos 2237 Rocket 3.5 15:47:20 28° SSW 15:47:20 28° SSW 15:50:34 10° SSE
BREEZE-M DEB (TANK) 4.3 15:40:32 35° NW 15:45:58 67° NNE 15:50:38 10° ESE
Cosmos 2333 Rocket 4.3 15:50:41 14° SSW 15:50:41 14° SSW 15:52:15 10° S
H-2A R/B 2.6 15:45:48 10° SSE 15:50:15 58° ENE 15:50:30 57° ENE
Cosmos 332 Rocket 4.3 15:53:53 32° S 15:56:01 59° ESE 16:00:50 10° NE
ERS-2 3.2 15:54:30 10° SSE 15:57:36 45° ESE 15:57:36 45° ESE
SL-08 ROCKET BODY 4.3 15:54:00 14° N 15:59:06 87° E 16:05:06 10° S
SL-8 R/B 3.7 16:00:38 76° SSE 16:00:38 76° SSE 16:05:21 10° E
CZ-3 R/B 4.3 15:52:07 16° NW 16:04:21 27° N 16:11:29 10° NE
SL-16 R/B 4.3 16:02:23 10° S 16:04:17 16° SSW 16:04:17 16° SSW
ISS -1.1 16:11:42 14° NNE 16:11:42 14° NNE 16:12:19 10° NNE
Cosmos 371 Rocket 3.2 16:09:01 69° SW 16:09:33 79° WNW 16:14:28 10° NNE
Cosmos 1607 4.3 16:07:52 18° NNW 16:12:40 65° ENE 16:18:52 10° SE
Cosmos 1420 Rocket 3.8 16:11:30 39° SSW 16:13:31 80° WNW 16:18:44 10° NNE
CZ-4C R/B 3.2 16:16:11 24° NNW 16:16:11 24° NNW 16:18:21 10° N
Cosmos 1943 4.4 16:10:22 10° N 16:15:42 43° ENE 16:21:06 10° SE
SMAP 4.0 16:12:49 10° NE 16:17:21 49° ESE 16:21:56 10° S
COSMOS 2455 4.0 16:23:15 25° NW 16:23:15 25° NW 16:26:19 10° N
CZ-4B R/B 2.9 16:17:55 10° SSE 16:21:19 40° E 16:24:39 10° N
YAOGAN 6 3.8 16:18:06 10° NE 16:21:27 41° ESE 16:24:53 10° S
Landsat 5 3.6 16:21:54 10° S 16:25:08 50° SSW 16:25:08 50° SSW
Lacrosse 5 2.6 16:26:49 35° SW 16:27:38 37° SSW 16:32:26 10° SE
CZ-4B DEB 4.3 16:31:24 10° N 16:36:52 52° W 16:42:23 10° SSW
Cosmos 2181 Rocket 4.3 16:30:22 10° S 16:36:55 73° E 16:43:24 10° NNE
Meteor 1-27 4.1 16:31:46 10° SSW 16:37:24 73° W 16:43:01 10° N
Cosmos 2221 2.9 16:34:44 10° S 16:39:12 66° E 16:43:37 10° NNE
Iridium 82 4.4 16:37:39 10° N 16:41:20 72° W 16:44:57 10° S
PAYLOAD B 4.4 16:40:03 10° N 16:45:30 52° W 16:51:04 10° SSW
ARGOS Delta rocket 3.6 16:41:09 10° NNE 16:45:36 89° ESE 16:50:09 10° S
NOAA 6 4.2 16:41:33 10° N 16:46:36 50° W 16:51:45 10° SSW
CZ-4B R/B 3.2 16:45:09 10° N 16:50:49 65° WNW 16:56:31 10° SSW
Helios 1A Rocket 4.2 16:46:56 10° NE 16:50:54 43° ESE 16:54:56 10° S
Cosmos 2369 Rocket 2.3 16:48:15 14° SW 16:53:01 53° WNW 16:58:30 10° N
Envisat 2.9 16:48:48 10° N 16:53:53 69° WNW 16:59:04 10° SSW
ASTEX 1 4.0 16:50:43 10° NNW 16:55:14 34° W 16:59:51 10° SSW
Cosmos 1656 Rocket 3.7 16:50:17 10° SSW 16:56:01 89° ESE 17:01:36 10° NNE
Cosmos 1953 Rocket 4.2 16:55:12 27° WNW 16:56:39 33° WSW 17:00:43 10° S
SL-16 R/B 3.1 16:56:02 25° WSW 16:57:40 29° SW 17:02:36 10° S
Cosmos 1745 Rocket 4.4 16:54:25 10° NW 17:00:05 37° WSW 17:05:49 10° S
Cosmos 1869 3.2 16:57:45 10° SSW 17:01:41 63° W 17:05:35 10° N
Cosmos 2263 4.2 16:56:21 10° SSW 17:01:56 62° WNW 17:07:28 10° N
USA 276 4.0 17:00:09 10° NNW 17:03:01 28° NE 17:05:55 10° E
Cosmos 304 Rocket 4.0 16:59:33 10° SSW 17:04:14 50° WNW 17:08:54 10° N
Okean-O 4.1 17:00:34 10° NE 17:04:44 39° ESE 17:08:57 10° S
Cosmos 1842 Rocket 3.6 17:01:51 10° SSW 17:06:17 57° W 17:10:38 10° N
H-2A R/B 3.6 17:03:51 10° NNW 17:07:08 27° W 17:08:04 24° WSW
Cosmos 1892 2.6 17:07:18 10° N 17:11:06 82° W 17:15:00 10° S
ADEOS Rocket 3.2 17:06:13 10° SSE 17:12:25 88° E 17:19:16 10° NNW
DNEPR-1 R/B 4.3 17:09:32 20° WNW 17:12:27 42° SW 17:17:40 10° SSE
Cosmos 1943 Rocket 3.1 17:10:23 18° WSW 17:13:07 26° WNW 17:17:39 10° NNW
Cosmos 2074 Rocket 4.4 17:08:46 10° N 17:15:04 72° E 17:21:25 10° SSE
Okean O Rocket 2.2 17:12:34 10° NNW 17:16:41 36° W 17:20:51 10° SSW
NOAA 11 4.4 17:12:57 10° NNE 17:18:28 78° ESE 17:24:02 10° SSW
ATLAS 5 CENTAUR R/B 3.5 17:15:00 10° SSW 17:20:13 32° SSE 17:24:42 10° E
Shenzhou-11 Module 3.2 17:19:12 15° NW 17:20:36 25° N 17:22:40 10° ENE
NOAA 12 4.2 17:16:09 10° N 17:21:21 55° W 17:26:38 10° SSW
Cosmos 1452 Rocket 4.3 17:20:25 10° SW 17:25:05 31° W 17:29:42 10° NNW
USA 234 4.0 17:19:20 10° ESE 17:25:22 39° S 17:30:56 12° WSW
H-2A R/B 3.5 17:22:42 10° SSW 17:25:46 18° WSW 17:27:37 14° W
SKYMED 2 4.2 17:21:31 10° SSE 17:25:56 63° E 17:30:17 10° N
ERBS 3.5 17:22:47 10° NNW 17:26:03 45° NE 17:29:22 10° ESE
Cosmos 1689 Rocket 2.0 17:23:04 10° S 17:26:07 63° WSW 17:29:06 10° NNW
CORIOLIS 4.4 17:21:42 10° N 17:26:55 50° W 17:32:12 10° SSW
Cosmos 1340 4.2 17:25:27 10° NNE 17:29:02 40° E 17:32:40 10° SSE
Cosmos 2237 Rocket 4.2 17:30:24 10° SW 17:31:12 10° SSW 17:31:59 10° SSW
FengYun 1-2 T 4.3 17:25:33 10° N 17:31:13 68° WNW 17:36:58 10° SSW
ERS-2 3.8 17:29:04 10° SSW 17:31:19 15° WSW 17:32:13 14° WSW
Cosmos 1331 Rocket 4.0 17:26:06 10° SSW 17:31:21 69° WNW 17:36:35 10° N
Cosmos 494 Rocket 4.0 17:27:06 10° NNW 17:32:23 78° WSW 17:37:46 10° SSE
Cosmos 2058 3.1 17:29:47 10° NNW 17:33:57 54° WSW 17:38:10 10° S
Cosmos 1606 4.0 17:31:53 10° S 17:35:39 45° ESE 17:39:25 10° NNE
Cosmos 1603 4.1 17:32:10 10° NW 17:37:32 43° SW 17:42:57 10° SSE
Cosmos 1408 2.6 17:35:32 10° NNW 17:39:10 58° W 17:42:50 10° S
SL-8 R/B 3.8 17:38:36 12° WSW 17:43:10 81° NNW 17:48:00 10° ENE
CZ-4 R/B 4.5 17:40:47 10° N 17:44:58 81° WNW 17:49:13 10° SSW
Cosmos 292 Rocket 3.9 17:43:14 10° SSW 17:48:12 86° ESE 17:53:06 10° NNE
CZ-4 R/B 1.5 17:46:44 10° NNE 17:50:55 88° E 17:55:05 10° SSW
CZ-4B R/B 3.1 17:50:58 10° SSW 17:53:17 17° WSW 17:55:36 10° WNW
SMAP 4.3 17:51:24 10° NW 17:54:57 21° W 17:58:33 10° SW
YAOGAN 6 4.3 17:53:04 10° NW 17:55:10 15° W 17:57:19 10° SW
Cosmos 1825 2.2 17:51:28 10° NNW 17:55:14 60° W 17:59:05 10° S
CZ-2D R/B 3.3 17:51:23 10° N 17:55:18 77° WNW 17:59:17 10° SSW
Cosmos 724 4.5 17:49:15 10° NW 17:55:26 66° SW 18:01:35 10° SSE
Cosmos 2154 Rocket 4.1 17:50:58 10° N 17:57:16 89° W 18:03:37 10° S
Cosmos 1766 Rocket 4.2 17:53:58 10° N 17:58:17 63° E 18:02:41 10° SSE
Cosmos 1933 4.1 17:54:40 10° S 17:58:44 59° ESE 18:02:45 10° NNE
Cosmos 1943 3.8 17:54:36 10° WNW 17:59:51 36° SW 18:05:10 10° SSE
CZ-2C R/B 4.1 17:54:58 10° NNE 18:00:40 60° ESE 18:06:29 10° S
